Regional Weather Roundup
Issued by NWS

Home | Current Version | Previous Version | Graphics & Text | Print | Product List | Glossary On
Versions: 1 2 3 4 5 6 7 8 9 10 11 12 13 14 15 16 17 18 19 20 21 22 23 24 25 26 27 28 29 30 31 32 33 34 35 36 37 38 39 40 41 42 43 44 45 46 47 48 49 50
000
ASUS44 KMEG 280610
RWRTN
TENNESSEE HOURLY STATE WEATHER ROUNDUP
NATIONAL WEATHER SERVICE MEMPHIS TN
1200 AM CST TUE FEB 28 2017

TNZ002-004-019-021-049-052-054-088>092-280700-
WEST TENNESSEE

CITY           SKY/WX    TMP DP  RH WIND       PRES   REMARKS
MEMPHIS INTL   PTCLDY    58  53  84 SE14      30.04F
NWS MEMPHIS      N/A     56 N/A N/A MISG        N/A
JACKSON        MOCLDY    57  53  86 S9G18     30.08F
UNION CITY     CLOUDY    55  54  94 CALM      30.05F
PARIS          PTCLDY    52  46  82 SE14      30.08F
HUNTINGDON     CLOUDY    55  52  88 S10       30.08F
$$

TNZ008-025-027-028-033-062-065-066-280700-
NORTH MIDDLE TENNESSEE

CITY           SKY/WX    TMP DP  RH WIND       PRES   REMARKS
NASHVILLE      MOCLDY    52  46  80 S9        30.16F
PORTLAND       PTCLDY    50  46  87 SE8G15    30.14F
CLARKSVILLE    CLOUDY    52  45  77 S10       30.12F
SMYRNA         PTCLDY    49  46  90 SE7       30.18F
COOKEVILLE     MOCLDY    52  46  82 S7        30.20F
GALLATIN       CLEAR     48  45  87 E3        30.18F
CROSSVILLE     CLOUDY    49  44  83 S7        30.24F
$$

TNZ061-075-076-078-094-096-097-280700-
SOUTH MIDDLE TENNESSEE

CITY           SKY/WX    TMP DP  RH WIND       PRES   REMARKS
FAYETTEVILLE   CLOUDY    54  50  87 S10       30.20F
TULLAHOMA      CLEAR     48  46  93 SE6       30.20F
WINCHESTER     CLEAR     52  46  82 SE14      30.20F
MCMINNVILLE    PTCLDY    46  46 100 CALM      30.20F
COLUMBIA       CLOUDY   N/A N/A N/A S9        30.14F
SHELBYVILLE    CLOUDY    54  50  87 SE7       30.20F
$$

TNZ017-018-042-046-047-280700-
NORTHEAST TENNESSEE

CITY           SKY/WX    TMP DP  RH WIND       PRES   REMARKS
TRI CITIES     CLEAR     43  36  76 CALM      30.29R
ELIZABETHTON   CLEAR     46  36  66 NE5       30.29S
$$

TNZ012-013-036-069-073-074-280700-
CENTRAL EAST TENNESSEE

CITY           SKY/WX    TMP DP  RH WIND       PRES   REMARKS
KNOXVILLE      PTCLDY    43  38  82 CALM      30.26F
OAK RIDGE      CLEAR     45  40  82 CALM      30.28F
DOWNTOWN KNOXV CLEAR     41  41 100 CALM      30.28F
GATLINBURG     CLEAR     36  34  93 CALM      30.27F
MORRISTOWN     PTCLDY    39  36  87 CALM      30.26F
JACKSBORO      CLEAR     37  36  93 CALM      30.29F
$$

TNZ083-085-099-280700-
SOUTHEAST TENNESSEE

CITY           SKY/WX    TMP DP  RH WIND       PRES   REMARKS
CHATTANOOGA    PTCLDY    43  41  93 CALM      30.28S
$$

SKY/WX REPORTED AS FAIR MEANS FEW OR NO CLOUDS BELOW
12 THOUSAND FEET.




USA.gov is the U.S. government's official web portal to all federal, state and local government web resources and services.